IDT,Max TemperatureF,Mean TemperatureF,Min TemperatureF,Max Dew PointF,MeanDew PointF,Min DewpointF,Max Humidity, Mean Humidity, Min Humidity, Max Sea Level PressureIn, Mean Sea Level PressureIn, Min Sea Level PressureIn, Max VisibilityMiles, Mean VisibilityMiles, Min VisibilityMiles, Max Wind SpeedMPH, Mean Wind SpeedMPH, Max Gust SpeedMPH,PrecipitationIn, CloudCover, Events, WindDirDegrees
2013-3-1,66,60,53,50,47,45,77,65,43,30.06,30.03,30.01,6,6,6,13,6,,0.00,3,,215
2013-3-2,74,61,48,51,44,36,87,58,15,30.06,29.99,29.86,6,6,6,8,3,,0.00,1,,354
2013-3-3,86,73,60,57,41,27,82,36,11,29.92,29.81,29.77,6,4,2,23,6,38,0.00,4,,209
2013-3-4,66,62,57,57,53,50,94,73,49,30.04,29.97,29.92,6,6,4,15,7,,0.00,4,,226
2013-3-5,68,62,55,54,49,45,82,64,45,30.12,30.05,30.01,14,6,6,16,9,,0.00,3,Rain,277
2013-3-6,64,56,46,50,41,32,88,57,28,30.24,30.18,30.12,6,6,5,15,6,,0.00,1,,351
2013-3-7,71,58,44,37,25,14,76,34,6,30.21,30.10,29.95,6,6,6,17,5,,0.00,4,,93
2013-3-8,82,71,60,39,24,16,45,17,5,29.95,29.81,29.71,6,6,6,17,8,,0.00,3,,100
2013-3-9,69,63,55,56,50,37,88,64,31,30.01,29.90,29.77,6,6,5,14,6,,0.00,3,,240
2013-3-10,69,61,53,52,48,43,82,63,29,30.04,30.00,29.98,6,6,6,14,4,,0.00,1,,233
2013-3-11,82,66,51,48,45,41,76,46,22,30.04,29.99,29.95,6,6,6,9,4,,0.00,1,,183
2013-3-12,93,78,62,48,42,34,52,29,7,29.95,29.89,29.80,6,5,4,16,6,26,0.00,,,168
2013-3-13,84,73,62,61,47,32,88,46,14,29.94,29.87,29.80,6,4,2,12,6,,0.00,0,,243
2013-3-14,87,72,57,59,54,41,100,63,22,29.94,29.87,29.80,6,2,0,10,4,,0.00,2,Fog,344
2013-3-15,96,81,66,61,44,30,83,29,9,29.80,29.73,29.65,6,5,3,21,6,30,0.00,0,,182
2013-3-16,68,64,59,61,51,45,83,62,37,29.98,29.93,29.83,6,6,2,14,8,,0.00,4,Rain,286
2013-3-17,66,62,57,52,47,41,82,60,32,30.07,30.01,29.95,6,6,5,20,9,,0.00,4,,266
2013-3-18,66,60,55,45,42,37,67,50,31,30.12,30.06,30.01,6,6,6,13,8,,0.00,3,,310
2013-3-19,71,61,51,52,45,39,76,58,24,30.04,29.95,29.89,6,6,6,15,5,,0.00,,,353
2013-3-20,73,62,51,54,49,43,82,63,35,30.05,29.99,29.92,6,6,4,16,5,,0.00,0,,346
2013-3-21,80,65,50,50,45,39,77,49,21,30.04,29.94,29.77,6,6,6,12,4,,0.00,0,,344
2013-3-22,91,76,60,59,47,27,77,50,10,29.89,29.72,29.59,6,4,1,25,8,39,0.00,3,,226
2013-3-23,66,62,59,55,50,45,77,63,49,29.98,29.91,29.86,6,6,5,20,11,,0.00,5,Rain,245
2013-3-24,68,62,55,48,44,39,72,53,28,30.10,30.04,29.98,6,6,6,13,7,,0.00,3,,317
2013-3-25,77,64,50,54,47,41,77,56,24,30.10,30.00,29.89,6,5,5,15,4,,0.00,0,,308
2013-3-26,90,70,51,57,43,25,82,46,6,29.89,29.79,29.65,6,6,4,17,6,30,0.00,3,,241
2013-3-27,69,64,59,56,53,50,82,68,43,30.04,29.97,29.89,6,6,5,16,6,,0.00,3,,239
2013-3-28,73,64,56,55,52,48,82,65,32,30.06,30.04,30.00,6,6,6,14,5,,0.00,2,,335
2013-3-29,77,68,58,52,45,39,77,50,22,30.05,30.02,29.98,6,6,6,15,5,,0.00,,,332
2013-3-30,75,62,50,57,47,37,77,52,24,30.01,29.92,29.83,6,6,6,14,4,,0.00,,,303
2013-3-31,93,75,57,57,51,37,82,48,16,29.87,29.82,29.77,6,5,4,15,4,,0.00,8,,20